Regional Weather Roundup
Issued by NWS Goodland, KS

Home | Current Version | Previous Version | Text Only | Print | Product List | Glossary On
Versions: 1 2 3 4 5 6 7 8 9 10 11 12 13 14 15 16 17 18 19 20 21 22 23 24 25 26 27 28 29 30 31 32 33 34 35 36 37 38 39 40 41 42 43 44 45 46 47 48 49 50
000
ASUS43 KGLD 091008
RWRGLD

GOODLAND FORECAST AREA HOURLY WEATHER ROUNDUP
NATIONAL WEATHER SERVICE GOODLAND KS
300 AM MST FRI DEC 09 2016

...OFFICIAL OBSERVATIONS...

CITY           SKY/WX    TMP DP  RH WIND       PRES   REMARKS
GOODLAND KS    CLOUDY     4  -1  80 S10       30.29F WCI -11
HILL CITY KS   CLOUDY    13   6  74 CALM      30.50F
IMPERIAL NEB   CLOUDY     9   2  73 SE10      30.32F WCI  -5
MCCOOK NEB     CLOUDY     3  -2  79 E3        30.43F
AKRON CO       CLOUDY     8   0  69 S10       30.16F WCI  -6
BURLINGTON CO  CLOUDY     6  -1  73 S10       30.24F WCI  -9
LIMON CO       CLOUDY    -1  -4  87 S6        30.14F
$$

...UNOFFICIAL OBSERVATIONS...

CITY           SKY/WX    TMP DP  RH WIND       PRES   REMARKS
COLBY KS       MOCLDY     9   7  92 SE9       30.37F
LENORA KS        N/A     13  32 100 MISG        N/A
NORTON KS      PTCLDY     9   1  72 SE7       30.45F
SHARON SPRINGS   N/A     15  11  82 SE14        N/A  WCI   0
TRENTON NEB      N/A      7  32 100 S6          N/A
KIT CARSON CO    N/A      7   0  71 CALM        N/A
YUMA CO        FAIR       9   1  72 S9        30.22F
$$




USA.gov is the U.S. government's official web portal to all federal, state and local government web resources and services.